[[{"header":{"parameterUnit":"m.s-1","parameterCategory":1,"la1":30.2991,"la2":30.254,"lo1":-89.0895,"lo2":-89.0444,"dy":0.0017,"dx":0.0017,"nx":28,"ny":28,"refTime":"2025-06-20T21:00:00:Z","depth":0,"parameterNumber":2,"parameterNumberName":"U-component_of_WINDS"},"data":[0,0,0,0,0,0,0,0,0,0,0,0,0,0,0,0,0,0,0,0,0,0,0,0,0,0,0,0,0,0,0,0,0,0,0,0,0,0,0,0,0,0,0,0,0,0,0,0,0,0,0,0,0,0,0,0,0,0,1.2051,1.2051,0,1.2055,1.2055,1.2055,1.2026,1.2025,1.2025,1.2024,1.2027,1.2028,1.2029,0,0,0,0,0,0,0,0,0,0,0,0,0,1.2017,1.2018,1.2051,1.2051,1.2051,1.2055,1.2055,1.2055,1.2026,1.2025,1.2024,1.2023,1.2027,1.2028,1.2029,0,0,0,0,0,0,0,0,0,0,0,0,0,1.2027,1.2018,1.2051,1.2037,1.2036,1.2055,1.2055,1.2055,1.2027,1.2025,1.2024,1.2023,1.2026,1.2028,1.2029,1.2061,0,0,1.2033,1.2033,0,0,0,0,0,0,0,0,1.2027,1.2029,1.2039,1.2038,1.2037,1.2039,1.2044,1.2057,1.2027,1.203,1.2024,1.2022,1.2032,1.2033,1.2036,1.2061,1.2061,1.2033,1.2034,1.2034,1.2035,0,0,0,0,0,0,0,1.2026,1.2028,1.2053,1.204,1.2038,1.203,1.203,1.2047,1.2038,1.203,1.2028,1.2029,1.2031,1.2035,1.2036,1.2062,1.2033,1.2034,1.2035,1.2035,1.2111,1.2112,0,0,0,0,0,0,1.2027,1.2028,1.2053,1.2053,1.2029,1.2032,1.2032,1.204,1.2038,1.2036,1.203,1.2027,1.2033,1.2034,1.2036,1.2072,1.2034,1.2035,1.2036,1.2109,1.2111,1.2112,0,0,0,0,0,0,1.2027,1.203,1.2053,1.204,1.2042,1.2034,1.2042,1.204,1.2044,1.2037,1.2036,1.2035,1.2032,1.2034,1.2055,1.2071,1.2036,1.2037,1.2108,1.211,1.2112,1.2144,0,0,0,0,0,0,1.2026,1.203,1.2043,1.204,1.2043,1.2072,1.2044,1.2041,1.2046,1.2043,1.2042,1.2041,1.2032,1.2053,1.2056,1.2072,1.2038,1.2106,1.2109,1.2111,1.2142,1.2147,1.2152,0,0,0,0,0,1.2025,1.2052,1.2043,1.2047,1.2059,1.2073,1.2074,1.2063,1.2048,1.206,1.2056,1.2041,1.2069,1.2055,1.2058,1.2076,1.2105,1.2108,1.2111,1.2139,1.2146,1.2152,0,0,0,0,0,0,1.2057,1.2052,1.2042,1.207,1.2072,1.2068,1.2083,1.2071,1.2078,1.2074,1.206,1.206,1.2082,1.2081,1.2066,1.2105,1.2084,1.2088,1.2105,1.2111,1.2116,1.2115,1.2039,0,0,0,0,0,1.2067,1.208,1.2074,1.2099,1.2101,1.2092,1.2098,1.2089,1.209,1.2091,1.2088,1.209,1.2099,1.2105,1.2114,1.2142,1.214,1.2155,1.216,1.2164,1.2167,1.2179,1.2185,1.2122,1.2121,1.2121,0,0,1.2089,1.2087,1.2096,1.2105,1.2106,1.2118,1.2093,1.2107,1.2116,1.2093,1.2112,1.211,1.2111,1.2135,1.2145,1.2134,1.2184,1.2168,1.2171,1.2172,1.2183,1.2189,1.2194,1.2123,1.2123,1.2123,0,0,1.2133,1.2134,1.2154,1.2155,1.2156,1.215,1.2154,1.2152,1.215,1.2168,1.2151,1.2161,1.2177,1.2178,1.218,1.2224,1.221,1.2227,1.2252,1.2265,1.227,1.2274,1.2287,1.2293,1.223,1.223,1.223,0,1.2159,1.2177,1.2165,1.218,1.2184,1.2164,1.2183,1.2185,1.2188,1.2191,1.2179,1.2198,1.2198,1.222,1.223,1.2234,1.2238,1.2226,1.227,1.2274,1.2278,1.2291,1.2296,1.2232,1.2232,1.2231,1.2231,0,1.2208,1.2221,1.2237,1.224,1.2246,1.2263,1.2252,1.2259,1.225,1.2244,1.2262,1.2261,1.2267,1.2272,1.2264,1.2293,1.2286,1.2273,1.2251,1.2286,1.2298,1.2303,1.2235,1.2234,1.2233,1.2233,0,0,1.2273,1.2269,1.2275,1.2275,1.2274,1.2283,1.2299,1.2305,1.231,1.2314,1.2325,1.2339,1.2325,1.2328,1.2319,1.233,1.2362,1.2315,1.2315,1.2322,1.2392,1.2401,1.2407,1.2353,1.2354,1.2355,1.2391,0,1.2315,1.2341,1.233,1.2356,1.2367,1.2347,1.236,1.2361,1.2356,1.2363,1.2358,1.2367,1.235,1.2351,1.2362,1.2356,1.2375,1.2353,1.2362,1.2362,1.2361,1.2413,1.2423,1.2457,1.2396,1.2396,1.2397,0,1.2367,1.2372,1.2399,1.2394,1.2398,1.241,1.2414,1.2422,1.2421,1.2417,1.2419,1.2407,1.2421,1.24,1.2418,1.2403,1.2406,1.2404,1.2405,1.2404,1.2381,1.2412,1.2468,1.2473,1.2404,1.2404,1.2403,0,1.2409,1.2422,1.2439,1.2441,1.2436,1.2445,1.2443,1.2442,1.2445,1.2449,1.2451,1.2456,1.2458,1.2462,1.2451,1.2437,1.2469,1.2448,1.2464,1.2464,1.247,1.247,1.2526,1.2476,1.2475,1.2475,1.2475,0,1.2456,1.2473,1.2458,1.2468,1.2486,1.2473,1.2491,1.2487,1.2486,1.2494,1.2479,1.2487,1.2473,1.248,1.2472,1.2486,1.2488,1.2483,1.2481,1.2484,1.2484,1.2484,1.2481,1.2477,1.2476,1.2476,1.2476,0,1.2505,1.2496,1.2513,1.2507,1.2506,1.252,1.2514,1.2523,1.2517,1.2528,1.253,1.252,1.2527,1.2517,1.2523,1.2517,1.2536,1.2531,1.2536,1.2534,1.255,1.2548,1.2607,1.2613,1.256,1.2561,1.2561,0,1.2535,1.2547,1.2542,1.2547,1.2546,1.2554,1.2557,1.2545,1.2548,1.2548,1.2556,1.2562,1.2566,1.2577,1.257,1.2574,1.2568,1.2588,1.2568,1.257,1.2566,1.2564,1.2565,1.2592,1.2593,1.2593,1.2594,0,1.2587,1.2582,1.2587,1.2591,1.2595,1.2597,1.2598,1.2603,1.2589,1.2595,1.2601,1.2604,1.2609,1.2615,1.2617,1.2614,1.2601,1.26,1.2604,1.2606,1.2608,1.2605,1.2545,1.2598,1.2598,1.2598,1.2597,1.2597,1.2626,1.2635,1.2633,1.2639,1.2638,1.2639,1.2646,1.2641,1.2646,1.2649,1.2642,1.265,1.2647,1.2649,1.2648,1.2653,1.2644,1.265,1.2651,1.2652,1.2653,1.2608,1.2654,1.2654,1.2653,1.2653,1.2653,0,1.2676,1.2673,1.2679,1.268,1.2685,1.2672,1.2672,1.2677,1.2684,1.2683,1.2686,1.2693,1.2698,1.2691,1.2694,1.2699,1.2693,1.27,1.2699,1.2698,1.2663,1.2658,1.2705,1.2705,1.2705,1.2705,1.2705,1.2705,1.2703,1.2717,1.2711,1.2724,1.2721,1.2728,1.2729,1.2729,1.2728,1.2736,1.2739,1.2735,1.2731,1.2733,1.2736,1.2734,1.2735,1.2744,1.274,1.2706,1.2701,1.2696,1.2692,1.2745,1.2745,1.2774,1.2775,1.2775]},{"header":{"parameterUnit":"m.s-1","parameterCategory":1,"la1":30.2991,"la2":30.254,"lo1":-89.0895,"lo2":-89.0444,"dy":0.0017,"dx":0.0017,"nx":28,"ny":28,"refTime":"2025-06-20T21:00:00:Z","depth":0,"parameterNumber":3,"parameterNumberName":"V-component_of_WINDS"},"data":[0,0,0,0,0,0,0,0,0,0,0,0,0,0,0,0,0,0,0,0,0,0,0,0,0,0,0,0,0,0,0,0,0,0,0,0,0,0,0,0,0,0,0,0,0,0,0,0,0,0,0,0,0,0,0,0,0,0,3.6904,3.6904,0,3.6914,3.6914,3.6914,3.6851,3.6849,3.6847,3.6846,3.6855,3.6857,3.6859,0,0,0,0,0,0,0,0,0,0,0,0,0,3.6829,3.6831,3.6904,3.6904,3.6904,3.6914,3.6914,3.6914,3.6851,3.6849,3.6847,3.6845,3.6854,3.6856,3.6859,0,0,0,0,0,0,0,0,0,0,0,0,0,3.6852,3.6831,3.6904,3.6874,3.6872,3.6914,3.6914,3.6914,3.6852,3.6849,3.6846,3.6844,3.6853,3.6856,3.6859,3.693,0,0,3.6868,3.6869,0,0,0,0,0,0,0,0,3.6851,3.6855,3.6878,3.6876,3.6873,3.6878,3.6891,3.6919,3.6852,3.6859,3.6846,3.6842,3.6865,3.6867,3.6874,3.6931,3.6931,3.6868,3.687,3.6871,3.6872,0,0,0,0,0,0,0,3.685,3.6854,3.6908,3.6879,3.6876,3.6859,3.686,3.6896,3.6877,3.6858,3.6854,3.6856,3.6863,3.6872,3.6874,3.6931,3.6868,3.687,3.6872,3.6873,3.7044,3.7046,0,0,0,0,0,0,3.6852,3.6854,3.6908,3.6908,3.6856,3.6863,3.6863,3.6879,3.6876,3.6873,3.6858,3.6853,3.6868,3.6871,3.6874,3.6955,3.6871,3.6874,3.6875,3.7041,3.7044,3.7047,0,0,0,0,0,0,3.6851,3.6858,3.6907,3.688,3.6885,3.6867,3.6886,3.6881,3.689,3.6876,3.6872,3.6871,3.6866,3.687,3.6916,3.6954,3.6875,3.6878,3.7037,3.7042,3.7046,3.7119,0,0,0,0,0,0,3.6849,3.6858,3.6885,3.6881,3.6886,3.695,3.6888,3.6883,3.6895,3.6888,3.6887,3.6884,3.6864,3.6912,3.6919,3.6957,3.688,3.7034,3.7039,3.7044,3.7113,3.7125,3.7135,0,0,0,0,0,3.6847,3.6906,3.6887,3.6894,3.692,3.6952,3.6955,3.6932,3.6898,3.6925,3.6916,3.6884,3.695,3.6917,3.6925,3.6964,3.7031,3.7038,3.7044,3.7108,3.7122,3.7135,0,0,0,0,0,0,3.6915,3.6905,3.6884,3.6943,3.6949,3.6942,3.6975,3.6949,3.6964,3.6957,3.6927,3.6927,3.6977,3.6975,3.694,3.7031,3.6984,3.6992,3.703,3.7044,3.7055,3.7054,3.6882,0,0,0,0,0,3.6938,3.6965,3.6954,3.7007,3.7011,3.6993,3.7006,3.6987,3.6992,3.6994,3.6988,3.6994,3.7015,3.703,3.7049,3.7113,3.711,3.7143,3.7154,3.7164,3.717,3.7201,3.7215,3.7068,3.7068,3.7068,0,0,3.6984,3.6981,3.7,3.7021,3.7023,3.7051,3.6995,3.7028,3.7047,3.6999,3.7041,3.7037,3.7041,3.7096,3.7119,3.7096,3.7211,3.7172,3.7179,3.7181,3.7209,3.7223,3.7236,3.7072,3.7071,3.7071,0,0,3.7081,3.7083,3.7126,3.7129,3.7133,3.712,3.7131,3.7127,3.7122,3.7165,3.7128,3.7151,3.7189,3.7193,3.72,3.7297,3.7267,3.7304,3.7362,3.7393,3.7404,3.7414,3.7447,3.7459,3.7311,3.7311,3.7311,0,3.7137,3.7178,3.7152,3.7186,3.7195,3.7152,3.7195,3.7199,3.721,3.7217,3.719,3.7236,3.7236,3.7289,3.7312,3.7321,3.733,3.7303,3.7405,3.7415,3.7424,3.7454,3.7467,3.7316,3.7315,3.7315,3.7314,0,3.7246,3.7275,3.7309,3.7319,3.7333,3.7371,3.735,3.7367,3.7346,3.7336,3.7378,3.7377,3.7394,3.7405,3.7386,3.7456,3.744,3.741,3.7362,3.7442,3.747,3.7482,3.7322,3.732,3.7319,3.7318,0,0,3.7387,3.7381,3.7394,3.7397,3.7397,3.7418,3.7454,3.7471,3.7484,3.7493,3.7521,3.7554,3.7525,3.7533,3.7514,3.7541,3.7615,3.7506,3.7506,3.7525,3.7688,3.771,3.7724,3.7596,3.7598,3.76,3.7687,0,3.748,3.7541,3.7517,3.7579,3.7604,3.7563,3.7594,3.7597,3.7588,3.7607,3.7597,3.762,3.7581,3.7585,3.7611,3.7601,3.7647,3.7594,3.762,3.7621,3.7618,3.7739,3.7762,3.7845,3.7698,3.77,3.7702,0,3.7597,3.7609,3.7673,3.7667,3.7676,3.7705,3.7716,3.7736,3.7738,3.7729,3.7738,3.7712,3.7745,3.7699,3.7744,3.7708,3.7718,3.7714,3.7717,3.7717,3.7665,3.774,3.7871,3.7882,3.7719,3.7718,3.7716,0,3.769,3.7723,3.7764,3.7768,3.7763,3.7783,3.7782,3.7781,3.7792,3.7803,3.7809,3.7824,3.7831,3.7843,3.7821,3.779,3.7869,3.7821,3.7861,3.7861,3.7878,3.7877,3.801,3.7888,3.7888,3.7887,3.7887,0,3.7795,3.7836,3.7806,3.7831,3.7874,3.7847,3.7891,3.7885,3.7884,3.7907,3.7873,3.7896,3.7867,3.7886,3.787,3.7908,3.7913,3.7906,3.79,3.7908,3.7908,3.7912,3.7905,3.7891,3.789,3.7889,3.7889,0,3.7907,3.7888,3.7931,3.7921,3.792,3.7952,3.7944,3.7967,3.7955,3.7984,3.799,3.7971,3.7992,3.7972,3.7992,3.7981,3.8032,3.8019,3.8031,3.8026,3.8067,3.8062,3.8205,3.8222,3.8091,3.8092,3.8094,0,3.7974,3.8004,3.7997,3.801,3.801,3.8031,3.8041,3.8015,3.8027,3.8031,3.8053,3.8071,3.8083,3.8118,3.8106,3.8121,3.8107,3.8156,3.8109,3.8115,3.8105,3.8103,3.8105,3.8165,3.8167,3.8168,3.8169,0,3.8095,3.8083,3.8099,3.8112,3.8124,3.8133,3.8139,3.8151,3.8124,3.8139,3.8159,3.8169,3.8189,3.8206,3.8217,3.8215,3.8187,3.8184,3.8194,3.82,3.8205,3.8201,3.8054,3.8181,3.818,3.8179,3.8178,3.8178,3.8184,3.8207,3.8206,3.8224,3.8225,3.8231,3.8251,3.8242,3.8258,3.8271,3.8255,3.828,3.8279,3.8291,3.8292,3.831,3.829,3.8304,3.8308,3.8311,3.8316,3.8204,3.8313,3.8312,3.8312,3.8312,3.8311,0,3.8301,3.8297,3.8314,3.8323,3.8337,3.8309,3.8314,3.8327,3.8349,3.8351,3.8364,3.8386,3.8403,3.8392,3.8406,3.8422,3.841,3.8426,3.8424,3.8423,3.8335,3.8324,3.8436,3.8436,3.8436,3.8436,3.8436,3.8436,3.8363,3.84,3.8389,3.8426,3.8422,3.8445,3.845,3.8455,3.8456,3.8482,3.8495,3.8488,3.8484,3.8497,3.8511,3.8507,3.8513,3.8534,3.8525,3.8442,3.843,3.8418,3.8408,3.8536,3.8536,3.8612,3.8613,3.8613]}]]